Location: Newark
(35.6799°N, 139.7636°E)
Time: 06:39:16
(UTC+00:00)

Vanguard 1 - Visible Passes

Search period start: 06 December 2019 00:00
Search period end: 16 December 2019 00:00
Orbit: 652 x 3831 km, 34.2° (Epoch: 05 December)

Date Brightness Start Highest point End Pass type
(mag) Time Alt. Az. Time Alt. Az. Time Alt. Az.
06 Dec 13.6 17:09:39 18° S 17:24:45 37° SE 17:42:25 10° E visible
06 Dec 12.9 19:26:59 10° SW 19:50:17 67° SSE 20:06:33 10° E visible
07 Dec 14.1 15:18:54 15° SE 15:21:50 15° SE 15:32:30 10° E visible
07 Dec 13.4 17:31:48 24° SSW 17:45:52 45° SE 18:04:21 10° E visible
07 Dec 12.8 19:48:13 10° WSW 20:11:48 74° SSE 20:27:46 10° E visible
08 Dec 13.8 15:40:32 22° SE 15:42:37 22° SE 15:57:37 10° E visible
08 Dec 13.2 17:53:23 29° SSW 18:07:05 53° SSE 18:26:01 10° ENE visible
08 Dec 12.7 20:09:42 10° WSW 20:33:22 80° SSE 20:48:56 10° E visible
09 Dec 13.6 16:01:45 29° SE 16:03:26 30° SE 16:20:59 10° E visible
09 Dec 13.0 18:14:35 31° SW 18:28:24 62° SSE 18:47:29 10° ENE visible
09 Dec 12.7 20:31:23 10° WSW 20:54:59 84° S 21:10:06 10° E visible
10 Dec 13.4 16:22:41 37° SE 16:24:17 38° SE 16:43:30 10° E visible
10 Dec 12.9 18:35:29 32° SW 18:49:51 69° SSE 19:08:52 10° E visible
10 Dec 12.6 20:53:12 10° W 21:16:38 86° S 21:31:14 10° E visible
11 Dec 14.2 14:30:35 11° ESE 14:30:35 11° ESE 14:32:12 10° E visible
11 Dec 13.2 16:43:22 45° SSE 16:45:14 46° SE 17:05:34 10° ENE visible
11 Dec 12.8 18:56:09 31° WSW 19:11:25 76° SSE 19:30:11 10° E visible
11 Dec 12.6 21:15:06 10° W 21:38:16 86° S 21:52:21 10° E visible
12 Dec 14.0 14:51:05 17° ESE 14:51:05 17° ESE 14:57:33 10° E visible
12 Dec 13.0 17:03:51 53° SSE 17:06:20 54° SSE 17:27:20 10° ENE visible
12 Dec 12.8 19:16:37 28° WSW 19:33:04 81° SSE 19:51:28 10° E visible
13 Dec 13.8 15:11:25 24° ESE 15:11:25 24° ESE 15:21:03 10° E visible
13 Dec 12.9 17:24:10 59° S 17:27:35 63° SSE 17:48:55 10° ENE visible
13 Dec 12.8 19:36:55 24° WSW 19:54:49 85° S 20:12:45 10° E visible
14 Dec 13.6 15:31:36 31° ESE 15:31:36 31° ESE 15:43:43 10° E visible
14 Dec 12.8 17:44:21 62° SSW 17:48:59 70° SSE 18:10:25 10° ENE visible
14 Dec 12.8 19:57:05 20° W 20:16:35 86° S 20:34:00 10° E visible
15 Dec 13.4 15:51:41 39° ESE 15:51:41 39° ESE 16:05:53 10° ENE visible
15 Dec 12.7 18:04:25 60° SW 18:10:34 77° SSE 18:31:52 10° E visible
15 Dec 12.8 20:17:09 16° W 20:38:21 86° S 20:55:13 10° E visible
